This is the latest recevied weather packets stored in our database for station/object N6RDS-8. If no packets are shown the sender has not sent any weather packets the latest 10 day(s).
| Time | Temp. | Humidity | Pressure | Rain* | Wind** | Luminosity | Snow |
|---|---|---|---|---|---|---|---|
| 1777645208 | 11.67° C | 84% | 1017.6 hPa | 0 mm | - | 122 W/m² | - |
| 1777644904 | 11.67° C | 84% | 1017.6 hPa | 0 mm | - | 109 W/m² | - |
| 1777644602 | 11.67° C | 86% | 1017.7 hPa | 0 mm | - | 97 W/m² | - |
| 1777644297 | 11.11° C | 86% | 1017.2 hPa | 0 mm | - | 88 W/m² | - |
| 1777643994 | 11.11° C | 89% | 1017.4 hPa | 0 mm | - | 80 W/m² | - |
| 1777643691 | 10.56° C | 89% | 1017.4 hPa | 0 mm | - | 70 W/m² | - |
| 1777643389 | 10° C | 90% | 1017.1 hPa | 0 mm | - | 61 W/m² | - |
| 1777643085 | 10° C | 91% | 1017.1 hPa | 0 mm | - | 54 W/m² | - |
| 1777642781 | 9.44° C | 93% | 1017.2 hPa | 0 mm | - | 47 W/m² | - |
| 1777642478 | 10° C | 95% | 1017.1 hPa | 0 mm | - | 42 W/m² | - |
| 1777642175 | 9.44° C | 96% | 1017.1 hPa | 0 mm | - | 37 W/m² | - |
| 1777641872 | 8.89° C | 96% | 1017 hPa | 0 mm | - | 33 W/m² | - |
| 1777641572 | 8.89° C | 96% | 1017 hPa | 0 mm | - | 29 W/m² | - |
| 1777641267 | 8.89° C | 96% | 1016.9 hPa | 0 mm | - | 25 W/m² | - |
| 1777640964 | 8.33° C | 96% | 1017 hPa | 0 mm | - | 22 W/m² | - |
| 1777640660 | 7.78° C | 96% | 1016.8 hPa | 0 mm | - | 19 W/m² | - |
| 1777640356 | 7.78° C | 96% | 1016.8 hPa | 0 mm | - | 15 W/m² | - |
| 1777640054 | 6.67° C | 96% | 1016.7 hPa | 0 mm | - | 12 W/m² | - |
| 1777639750 | 6.67° C | 96% | 1016.7 hPa | 0 mm | - | 9 W/m² | - |
| 1777639448 | 6.67° C | 96% | 1016.4 hPa | 0 mm | - | 6 W/m² | - |
| 1777639144 | 7.22° C | 96% | 1016.5 hPa | 0 mm | - | 4 W/m² | - |
| 1777638841 | 7.22° C | 96% | 1016.4 hPa | 0 mm | - | 2 W/m² | - |
| 1777638536 | 7.22° C | 96% | 1016.4 hPa | 0 mm | - | 1 W/m² | - |
| 1777638233 | 7.78° C | 96% | 1016.5 hPa | 0 mm | - | 0 W/m² | - |
| 1777637929 | 7.78° C | 96% | 1016.4 hPa | 0 mm | - | 0 W/m² | - |
* Rain latest hour (hover to see other rain measurements)
** Current wind speed in m/s (hover to see current wind gust speed)